UAL1777 KEWR-KSFO

Flight info

Callsign UAL1777
Flight time 5h 14m
Altitude 36000
Route ZIMMZ Q42 STRUK/N0476F380 Q42 LEWRP PWE MCK VOAXA Q136 RUMPS OAL INYOE ALWYS3
Aircraft B77W/H-SDE1E2E3FGHIJ2J3J4J5M1RWXY/LB1D1

Departure

Time 2026-04-20 19:55
Airport Newark Liberty International Airport (KEWR)

Arrival

Time 2026-04-21 01:10
Airport San Francisco International Airport (KSFO)
Time Latitude Longitude Altitude Speed Heading
2026-04-20 19:45 40.69879 -74.17772 27 ft 0 kts 270°
2026-04-20 19:46 40.69879 -74.17747 27 ft 4 kts 273°
2026-04-20 19:46 40.69877 -74.17712 27 ft 4 kts 273°
2026-04-20 19:46 40.69878 -74.17677 27 ft 4 kts 256°
2026-04-20 19:47 40.69885 -74.17650 26 ft 4 kts 234°
2026-04-20 19:47 40.69904 -74.17626 25 ft 4 kts 219°
2026-04-20 19:47 40.69909 -74.17621 25 ft 0 kts 221°
2026-04-20 19:48 40.69905 -74.17625 25 ft 3 kts 214°
2026-04-20 19:49 40.69865 -74.17614 26 ft 9 kts 132°
2026-04-20 19:49 40.69874 -74.17557 27 ft 6 kts 38°
2026-04-20 19:49 40.69929 -74.17517 27 ft 13 kts 33°
2026-04-20 19:49 40.70009 -74.17419 27 ft 17 kts 47°
2026-04-20 19:50 40.70109 -74.17337 27 ft 14 kts 46°
2026-04-20 19:50 40.70116 -74.17257 27 ft 9 kts 95°
2026-04-20 19:50 40.70111 -74.17173 27 ft 10 kts 94°
2026-04-20 19:50 40.70106 -74.17062 27 ft 14 kts 93°
2026-04-20 19:51 40.70095 -74.16910 27 ft 19 kts 95°
2026-04-20 19:51 40.70036 -74.16757 27 ft 22 kts 169°
2026-04-20 19:51 40.69874 -74.16768 27 ft 26 kts 184°
2026-04-20 19:51 40.69695 -74.16850 27 ft 29 kts 207°
2026-04-20 19:52 40.69509 -74.16974 27 ft 30 kts 206°
2026-04-20 19:52 40.69321 -74.17092 27 ft 30 kts 206°
2026-04-20 19:52 40.69133 -74.17211 27 ft 30 kts 205°
2026-04-20 19:52 40.68944 -74.17330 27 ft 30 kts 206°
2026-04-20 19:53 40.68757 -74.17450 27 ft 30 kts 205°
2026-04-20 19:53 40.68569 -74.17570 27 ft 30 kts 205°
2026-04-20 19:53 40.68382 -74.17690 27 ft 30 kts 206°
2026-04-20 19:53 40.68194 -74.17810 27 ft 30 kts 205°
2026-04-20 19:54 40.68070 -74.17856 27 ft 10 kts 150°
2026-04-20 19:54 40.68038 -74.17778 27 ft 10 kts 114°
2026-04-20 19:54 40.68012 -74.17687 28 ft 11 kts 97°
2026-04-20 19:54 40.68058 -74.17613 30 ft 11 kts 26°
2026-04-20 19:55 40.68180 -74.17539 32 ft 37 kts 25°
2026-04-20 19:55 40.68647 -74.17242 29 ft 112 kts 26°
2026-04-20 19:55 40.69536 -74.16681 49 ft 169 kts 25°
2026-04-20 19:55 40.70598 -74.16008 744 ft 169 kts 21°
2026-04-20 19:56 40.71331 -74.15676 1325 ft 165 kts
2026-04-20 19:56 40.72900 -74.15831 2113 ft 175 kts 347°
2026-04-20 19:56 40.74105 -74.16156 2810 ft 179 kts 342°
2026-04-20 19:56 40.75174 -74.17086 3046 ft 201 kts 303°
2026-04-20 19:57 40.75519 -74.18993 3241 ft 232 kts 271°
2026-04-20 19:57 40.75441 -74.21177 3761 ft 241 kts 269°
2026-04-20 19:57 40.75379 -74.23425 4465 ft 249 kts 272°
2026-04-20 19:57 40.75375 -74.25721 5376 ft 251 kts 272°
2026-04-20 19:58 40.75389 -74.28025 6312 ft 251 kts 273°
2026-04-20 19:58 40.75412 -74.30337 7168 ft 254 kts 273°
2026-04-20 19:58 40.75442 -74.32677 8016 ft 256 kts 272°
2026-04-20 19:58 40.75474 -74.35029 8906 ft 258 kts 271°
2026-04-20 19:59 40.75506 -74.37402 9850 ft 258 kts 271°
2026-04-20 19:59 40.75539 -74.39792 10609 ft 266 kts 271°
2026-04-20 19:59 40.75573 -74.42344 10847 ft 292 kts 271°
2026-04-20 19:59 40.75608 -74.45138 11078 ft 317 kts 271°
2026-04-20 20:00 40.75643 -74.48153 11450 ft 337 kts 271°
2026-04-20 20:00 40.75680 -74.51295 12232 ft 347 kts 271°
2026-04-20 20:00 40.75720 -74.54454 13209 ft 352 kts 271°
2026-04-20 20:00 40.75763 -74.57703 14257 ft 356 kts 271°
2026-04-20 20:01 40.75806 -74.60989 15199 ft 360 kts 271°
2026-04-20 20:01 40.75848 -74.64320 16073 ft 366 kts 271°
2026-04-20 20:01 40.75890 -74.67710 16954 ft 372 kts 271°
2026-04-20 20:01 40.75930 -74.71145 17869 ft 377 kts 271°
2026-04-20 20:02 40.75970 -74.74624 18726 ft 382 kts 271°
2026-04-20 20:02 40.76009 -74.78151 19471 ft 387 kts 271°
2026-04-20 20:02 40.76047 -74.81679 20285 ft 390 kts 271°
2026-04-20 20:02 40.76085 -74.85282 21045 ft 395 kts 271°
2026-04-20 20:03 40.76121 -74.88931 21767 ft 401 kts 271°
2026-04-20 20:03 40.76157 -74.92630 22472 ft 406 kts 271°
2026-04-20 20:03 40.76191 -74.96373 23184 ft 411 kts 271°
2026-04-20 20:03 40.76225 -75.00167 23878 ft 416 kts 271°
2026-04-20 20:04 40.76259 -75.03997 24440 ft 420 kts 270°
2026-04-20 20:04 40.76291 -75.07864 25045 ft 423 kts 271°
2026-04-20 20:04 40.76322 -75.11767 25606 ft 427 kts 270°
2026-04-20 20:04 40.76352 -75.15704 26238 ft 430 kts 270°
2026-04-20 20:05 40.76381 -75.19666 26876 ft 433 kts 270°
2026-04-20 20:05 40.76410 -75.23658 27452 ft 437 kts 270°
2026-04-20 20:05 40.76438 -75.27679 28011 ft 441 kts 270°
2026-04-20 20:05 40.76459 -75.31737 28529 ft 444 kts 269°
2026-04-20 20:06 40.76332 -75.35817 29000 ft 446 kts 265°
2026-04-20 20:06 40.75946 -75.39864 29368 ft 443 kts 260°
2026-04-20 20:06 40.75448 -75.42484 29358 ft 448 kts 250°
2026-04-20 20:06 40.73432 -75.47305 29566 ft 455 kts 239°
2026-04-20 20:07 40.71691 -75.50780 29564 ft 454 kts 240°
2026-04-20 20:07 40.69202 -75.56956 29661 ft 460 kts 247°
2026-04-20 20:07 40.67928 -75.60773 30049 ft 462 kts 248°
2026-04-20 20:08 40.66617 -75.64692 30606 ft 460 kts 248°
2026-04-20 20:08 40.65296 -75.68451 31135 ft 456 kts 246°
2026-04-20 20:08 40.63895 -75.72242 31703 ft 453 kts 246°
2026-04-20 20:08 40.62487 -75.75952 32142 ft 453 kts 245°
2026-04-20 20:09 40.61094 -75.79617 32517 ft 454 kts 246°
2026-04-20 20:09 40.59667 -75.83394 32810 ft 457 kts 246°
2026-04-20 20:09 40.58266 -75.87086 33198 ft 457 kts 246°
2026-04-20 20:09 40.56845 -75.90815 33646 ft 455 kts 246°
2026-04-20 20:10 40.55423 -75.94538 34047 ft 455 kts 246°
2026-04-20 20:10 40.54005 -75.98250 34397 ft 455 kts 246°
2026-04-20 20:10 40.52583 -76.01969 34693 ft 455 kts 246°
2026-04-20 20:10 40.51160 -76.05686 34987 ft 455 kts 246°
2026-04-20 20:11 40.49736 -76.09403 35265 ft 455 kts 246°
2026-04-20 20:11 40.48316 -76.13105 35603 ft 453 kts 246°
2026-04-20 20:11 40.46893 -76.16808 35879 ft 454 kts 246°
2026-04-20 20:11 40.45470 -76.20508 36112 ft 455 kts 246°
2026-04-20 20:12 40.44034 -76.24238 36164 ft 459 kts 246°
2026-04-20 20:12 40.41146 -76.31725 36242 ft 459 kts 246°
2026-04-20 20:13 40.36864 -76.42791 36247 ft 453 kts 246°
2026-04-20 20:13 40.34298 -76.50292 36238 ft 447 kts 253°
2026-04-20 20:14 40.32974 -76.58173 36244 ft 445 kts 265°
2026-04-20 20:14 40.32228 -76.66184 36243 ft 446 kts 262°
2026-04-20 20:15 40.30888 -76.74211 36277 ft 455 kts 258°
2026-04-20 20:15 40.29406 -76.82311 36259 ft 456 kts 259°
2026-04-20 20:16 40.28086 -76.90351 36266 ft 448 kts 261°
2026-04-20 20:16 40.26865 -76.98358 36297 ft 448 kts 261°
2026-04-20 20:17 40.25654 -77.06374 36287 ft 449 kts 261°
2026-04-20 20:17 40.24422 -77.14412 36298 ft 450 kts 261°
2026-04-20 20:18 40.23181 -77.22404 36296 ft 451 kts 261°
2026-04-20 20:18 40.21921 -77.30465 36300 ft 452 kts 261°
2026-04-20 20:19 40.20655 -77.38534 36282 ft 452 kts 261°
2026-04-20 20:19 40.19388 -77.46586 36318 ft 451 kts 261°
2026-04-20 20:20 40.18124 -77.54577 36307 ft 451 kts 261°
2026-04-20 20:20 40.16847 -77.62608 36296 ft 451 kts 262°
2026-04-20 20:21 40.15566 -77.70629 36317 ft 451 kts 262°
2026-04-20 20:21 40.14280 -77.78659 36318 ft 451 kts 262°
2026-04-20 20:22 40.13345 -77.86729 36300 ft 447 kts 269°
2026-04-20 20:22 40.13322 -77.94793 36302 ft 443 kts 275°
2026-04-20 20:23 40.13611 -78.02840 36312 ft 445 kts 275°
2026-04-20 20:23 40.13810 -78.10935 36302 ft 447 kts 274°
2026-04-20 20:24 40.13908 -78.19016 36301 ft 448 kts 274°
2026-04-20 20:24 40.13970 -78.27163 36295 ft 449 kts 273°
2026-04-20 20:25 40.14030 -78.35321 36310 ft 449 kts 274°
2026-04-20 20:25 40.14090 -78.43470 36315 ft 448 kts 274°
2026-04-20 20:26 40.14148 -78.51603 36309 ft 447 kts 273°
2026-04-20 20:26 40.14200 -78.59736 36312 ft 447 kts 273°
2026-04-20 20:27 40.14246 -78.67857 36312 ft 446 kts 273°
2026-04-20 20:27 40.14283 -78.75912 36287 ft 445 kts 274°
2026-04-20 20:28 40.14319 -78.84001 36279 ft 445 kts 274°
2026-04-20 20:28 40.14348 -78.92072 36289 ft 444 kts 274°
2026-04-20 20:29 40.14371 -79.00140 36294 ft 444 kts 274°
2026-04-20 20:29 40.14389 -79.08203 36288 ft 443 kts 274°
2026-04-20 20:30 40.14403 -79.16258 36340 ft 442 kts 274°
2026-04-20 20:30 40.14546 -79.24293 36354 ft 442 kts 276°
2026-04-20 20:31 40.14766 -79.32282 36352 ft 443 kts 276°
2026-04-20 20:31 40.14976 -79.40345 36365 ft 444 kts 276°
2026-04-20 20:32 40.15158 -79.48420 36349 ft 444 kts 276°
2026-04-20 20:32 40.15327 -79.56493 36344 ft 444 kts 276°
2026-04-20 20:33 40.15490 -79.64527 36355 ft 445 kts 276°
2026-04-20 20:33 40.15650 -79.72622 36351 ft 445 kts 276°
2026-04-20 20:34 40.15805 -79.80720 36318 ft 445 kts 276°
2026-04-20 20:34 40.15950 -79.88789 36346 ft 443 kts 276°
2026-04-20 20:35 40.16091 -79.96794 36342 ft 442 kts 276°
2026-04-20 20:35 40.16229 -80.04825 36370 ft 441 kts 276°
2026-04-20 20:36 40.16361 -80.12850 36370 ft 441 kts 276°
2026-04-20 20:36 40.16485 -80.20860 36369 ft 440 kts 276°
2026-04-20 20:37 40.16603 -80.28848 36370 ft 440 kts 276°
2026-04-20 20:37 40.16718 -80.36850 36364 ft 439 kts 276°
2026-04-20 20:38 40.16827 -80.44835 36369 ft 439 kts 276°
2026-04-20 20:38 40.16929 -80.52766 36376 ft 439 kts 276°
2026-04-20 20:39 40.17025 -80.60758 36363 ft 439 kts 277°
2026-04-20 20:39 40.17117 -80.68737 36353 ft 438 kts 277°
2026-04-20 20:40 40.17205 -80.76714 36350 ft 439 kts 277°
2026-04-20 20:40 40.17285 -80.84702 36359 ft 439 kts 277°
2026-04-20 20:41 40.17361 -80.92688 36334 ft 439 kts 277°
2026-04-20 20:41 40.17407 -81.00627 36368 ft 439 kts 276°
2026-04-20 20:42 40.17335 -81.08626 36373 ft 440 kts 276°
2026-04-20 20:42 40.17235 -81.16622 36383 ft 440 kts 276°
2026-04-20 20:43 40.17145 -81.24622 36376 ft 440 kts 276°
2026-04-20 20:43 40.17060 -81.32614 36372 ft 439 kts 276°
2026-04-20 20:44 40.16972 -81.40588 36375 ft 439 kts 276°
2026-04-20 20:44 40.16879 -81.48518 36377 ft 439 kts 276°
2026-04-20 20:45 40.16779 -81.56497 36369 ft 439 kts 276°
2026-04-20 20:45 40.16736 -81.64435 36384 ft 431 kts 278°
2026-04-20 20:46 40.17005 -81.72261 36377 ft 431 kts 280°
2026-04-20 20:46 40.17302 -81.80112 36378 ft 433 kts 279°
2026-04-20 20:47 40.17570 -81.87958 36383 ft 435 kts 279°
2026-04-20 20:47 40.17823 -81.95885 36383 ft 436 kts 279°
2026-04-20 20:48 40.18070 -82.03823 36384 ft 436 kts 279°
2026-04-20 20:48 40.18312 -82.11749 36380 ft 436 kts 279°
2026-04-20 20:49 40.18551 -82.19675 36383 ft 435 kts 279°
2026-04-20 20:49 40.18785 -82.27587 36380 ft 435 kts 279°
2026-04-20 20:50 40.19010 -82.35430 36384 ft 434 kts 279°
2026-04-20 20:50 40.19232 -82.43315 36368 ft 433 kts 279°
2026-04-20 20:51 40.19449 -82.51188 36378 ft 433 kts 279°
2026-04-20 20:51 40.19660 -82.59054 36387 ft 432 kts 279°
2026-04-20 20:52 40.19865 -82.66857 36386 ft 432 kts 279°
2026-04-20 20:52 40.20066 -82.74717 36385 ft 432 kts 279°
2026-04-20 20:53 40.20260 -82.82570 36385 ft 431 kts 279°
2026-04-20 20:53 40.20449 -82.90404 36372 ft 431 kts 279°
2026-04-20 20:54 40.20633 -82.98245 36375 ft 431 kts 279°
2026-04-20 20:54 40.20782 -83.04765 36369 ft 431 kts 279°
2026-04-20 20:55 40.20956 -83.12618 36368 ft 432 kts 279°
2026-04-20 20:55 40.21125 -83.20460 36376 ft 431 kts 279°
2026-04-20 20:56 40.21287 -83.28253 36364 ft 431 kts 279°
2026-04-20 20:56 40.21445 -83.36092 36359 ft 431 kts 279°
2026-04-20 20:57 40.21598 -83.43926 36389 ft 431 kts 278°
2026-04-20 20:57 40.21746 -83.51774 36387 ft 431 kts 278°
2026-04-20 20:58 40.21888 -83.59606 36383 ft 430 kts 278°
2026-04-20 20:58 40.22024 -83.67429 36388 ft 430 kts 278°
2026-04-20 20:59 40.22157 -83.75261 36377 ft 430 kts 278°
2026-04-20 20:59 40.22282 -83.83041 36378 ft 430 kts 278°
2026-04-20 21:00 40.22403 -83.90874 36388 ft 431 kts 278°
2026-04-20 21:00 40.22519 -83.98703 36386 ft 430 kts 278°
2026-04-20 21:01 40.22630 -84.06539 36383 ft 430 kts 278°
2026-04-20 21:01 40.22735 -84.14380 36383 ft 431 kts 278°
2026-04-20 21:02 40.22836 -84.22237 36380 ft 431 kts 278°
2026-04-20 21:02 40.22930 -84.30045 36352 ft 432 kts 278°
2026-04-20 21:03 40.23020 -84.37912 36355 ft 431 kts 278°
2026-04-20 21:03 40.23104 -84.45762 36356 ft 431 kts 278°
2026-04-20 21:04 40.23182 -84.53613 36364 ft 432 kts 278°
2026-04-20 21:04 40.23256 -84.61471 36362 ft 432 kts 277°
2026-04-20 21:05 40.23324 -84.69283 36341 ft 431 kts 277°
2026-04-20 21:05 40.23388 -84.77132 36360 ft 431 kts 277°
2026-04-20 21:06 40.23445 -84.84982 36371 ft 431 kts 277°
2026-04-20 21:06 40.23498 -84.92838 36366 ft 431 kts 277°
2026-04-20 21:07 40.23544 -85.00692 36366 ft 432 kts 277°
2026-04-20 21:07 40.23586 -85.08496 36353 ft 431 kts 277°
2026-04-20 21:08 40.23623 -85.16361 36369 ft 431 kts 277°
2026-04-20 21:08 40.23654 -85.24209 36373 ft 431 kts 277°
2026-04-20 21:09 40.23681 -85.32071 36349 ft 432 kts 277°
2026-04-20 21:09 40.23703 -85.39929 36350 ft 432 kts 277°
2026-04-20 21:10 40.23889 -85.47759 36339 ft 429 kts 279°
2026-04-20 21:10 40.24207 -85.55509 36348 ft 429 kts 279°
2026-04-20 21:11 40.24517 -85.63308 36355 ft 429 kts 279°
2026-04-20 21:11 40.24792 -85.71113 36357 ft 429 kts 279°
2026-04-20 21:12 40.25047 -85.78917 36361 ft 429 kts 279°
2026-04-20 21:12 40.25293 -85.86732 36151 ft 429 kts 279°
2026-04-20 21:13 40.25535 -85.94493 36155 ft 429 kts 279°
2026-04-20 21:13 40.25773 -86.02304 36184 ft 429 kts 278°
2026-04-20 21:14 40.26007 -86.10126 36373 ft 429 kts 278°
2026-04-20 21:14 40.26236 -86.17935 36360 ft 429 kts 278°
2026-04-20 21:15 40.26457 -86.25699 36349 ft 428 kts 278°
2026-04-20 21:15 40.26675 -86.33500 36342 ft 429 kts 278°
2026-04-20 21:16 40.26887 -86.41299 36339 ft 429 kts 278°
2026-04-20 21:16 40.27096 -86.49109 36329 ft 429 kts 278°
2026-04-20 21:17 40.27297 -86.56918 36296 ft 429 kts 278°
2026-04-20 21:17 40.27493 -86.64724 36324 ft 429 kts 278°
2026-04-20 21:18 40.27684 -86.72527 36336 ft 429 kts 278°
2026-04-20 21:18 40.27871 -86.80331 36346 ft 429 kts 278°
2026-04-20 21:19 40.28052 -86.88101 36344 ft 429 kts 278°
2026-04-20 21:20 40.28313 -86.99808 36331 ft 428 kts 278°
2026-04-20 21:20 40.28480 -87.07597 36349 ft 428 kts 278°
2026-04-20 21:21 40.28643 -87.15394 36344 ft 428 kts 278°
2026-04-20 21:21 40.28800 -87.23200 36351 ft 429 kts 278°
2026-04-20 21:22 40.28953 -87.31009 36339 ft 429 kts 278°
2026-04-20 21:22 40.29099 -87.38823 36330 ft 429 kts 278°
2026-04-20 21:23 40.29241 -87.46629 36338 ft 429 kts 278°
2026-04-20 21:23 40.29380 -87.54445 36331 ft 429 kts 278°
2026-04-20 21:24 40.29416 -87.62241 36335 ft 431 kts 276°
2026-04-20 21:24 40.29301 -87.70100 36332 ft 432 kts 276°
2026-04-20 21:25 40.29169 -87.77964 36321 ft 431 kts 276°
2026-04-20 21:25 40.29056 -87.85816 36332 ft 431 kts 276°
2026-04-20 21:26 40.28953 -87.93678 36346 ft 431 kts 276°
2026-04-20 21:26 40.28850 -88.01484 36334 ft 431 kts 276°
2026-04-20 21:27 40.28739 -88.09356 36299 ft 431 kts 276°
2026-04-20 21:27 40.28622 -88.17198 36321 ft 431 kts 276°
2026-04-20 21:28 40.28499 -88.25047 36324 ft 431 kts 276°
2026-04-20 21:28 40.28371 -88.32900 36321 ft 431 kts 276°
2026-04-20 21:29 40.28239 -88.40694 36321 ft 431 kts 276°
2026-04-20 21:29 40.28101 -88.48543 36294 ft 431 kts 276°
2026-04-20 21:30 40.27957 -88.56394 36323 ft 430 kts 276°
2026-04-20 21:30 40.27808 -88.64237 36320 ft 430 kts 276°
2026-04-20 21:31 40.27655 -88.72037 36322 ft 431 kts 276°
2026-04-20 21:31 40.27495 -88.79883 36316 ft 431 kts 275°
2026-04-20 21:32 40.27330 -88.87744 36293 ft 431 kts 275°
2026-04-20 21:32 40.27160 -88.95583 36311 ft 430 kts 275°
2026-04-20 21:33 40.26986 -89.03366 36313 ft 430 kts 275°
2026-04-20 21:33 40.26805 -89.11214 36306 ft 430 kts 275°
2026-04-20 21:34 40.26619 -89.19048 36302 ft 430 kts 275°
2026-04-20 21:34 40.26428 -89.26876 36280 ft 430 kts 275°
2026-04-20 21:35 40.26232 -89.34701 36300 ft 429 kts 275°
2026-04-20 21:35 40.26031 -89.42523 36291 ft 430 kts 275°
2026-04-20 21:36 40.25824 -89.50364 36299 ft 430 kts 275°
2026-04-20 21:36 40.25613 -89.58135 36303 ft 430 kts 275°
2026-04-20 21:37 40.25396 -89.65969 36296 ft 431 kts 275°
2026-04-20 21:37 40.25172 -89.73814 36287 ft 431 kts 275°
2026-04-20 21:38 40.24944 -89.81660 36284 ft 431 kts 275°
2026-04-20 21:38 40.24710 -89.89503 36288 ft 431 kts 275°
2026-04-20 21:39 40.24471 -89.97348 36303 ft 431 kts 275°
2026-04-20 21:39 40.24227 -90.05194 36289 ft 431 kts 274°
2026-04-20 21:40 40.23978 -90.13031 36297 ft 431 kts 274°
2026-04-20 21:40 40.23723 -90.20882 36287 ft 432 kts 274°
2026-04-20 21:41 40.23463 -90.28732 36287 ft 432 kts 274°
2026-04-20 21:41 40.23243 -90.35268 36284 ft 432 kts 274°
2026-04-20 21:42 40.22929 -90.44409 36267 ft 432 kts 274°
2026-04-20 21:42 40.22699 -90.50994 36273 ft 432 kts 274°
2026-04-20 21:43 40.22420 -90.58853 36277 ft 432 kts 274°
2026-04-20 21:43 40.22136 -90.66719 36272 ft 433 kts 274°
2026-04-20 21:44 40.21847 -90.74536 36276 ft 433 kts 274°
2026-04-20 21:44 40.21552 -90.82406 36256 ft 433 kts 273°
2026-04-20 21:45 40.21252 -90.90272 36271 ft 433 kts 273°
2026-04-20 21:45 40.20945 -90.98156 36252 ft 433 kts 273°
2026-04-20 21:46 40.20632 -91.06035 36247 ft 433 kts 273°
2026-04-20 21:46 40.20316 -91.13862 36253 ft 433 kts 273°
2026-04-20 21:47 40.19995 -91.21734 36237 ft 433 kts 273°
2026-04-20 21:47 40.19668 -91.29599 36236 ft 433 kts 272°
2026-04-20 21:48 40.19334 -91.37474 36231 ft 433 kts 272°
2026-04-20 21:48 40.18995 -91.45352 36226 ft 434 kts 272°
2026-04-20 21:49 40.18652 -91.53182 36198 ft 434 kts 272°
2026-04-20 21:49 40.18304 -91.61056 36223 ft 434 kts 272°
2026-04-20 21:50 40.17949 -91.68935 36229 ft 434 kts 272°
2026-04-20 21:50 40.17588 -91.76823 36229 ft 434 kts 272°
2026-04-20 21:51 40.17222 -91.84714 36222 ft 434 kts 272°
2026-04-20 21:51 40.16850 -91.92595 36198 ft 434 kts 272°
2026-04-20 21:52 40.16478 -92.00415 36218 ft 434 kts 271°
2026-04-20 21:52 40.16096 -92.08294 36224 ft 434 kts 271°
2026-04-20 21:53 40.15708 -92.16173 36216 ft 434 kts 271°
2026-04-20 21:53 40.15315 -92.24048 36212 ft 434 kts 271°
2026-04-20 21:54 40.14918 -92.31926 36190 ft 433 kts 271°
2026-04-20 21:54 40.14519 -92.39744 36198 ft 433 kts 271°
2026-04-20 21:55 40.14111 -92.47610 36205 ft 433 kts 271°
2026-04-20 21:55 40.13698 -92.55463 36201 ft 433 kts 271°
2026-04-20 21:56 40.13463 -92.63313 36203 ft 430 kts 275°
2026-04-20 21:56 40.13710 -92.71115 36194 ft 429 kts 277°
2026-04-20 21:57 40.14072 -92.78838 36197 ft 429 kts 277°
2026-04-20 21:57 40.14383 -92.86630 36196 ft 429 kts 276°
2026-04-20 21:58 40.14639 -92.94426 36185 ft 430 kts 276°
2026-04-20 21:58 40.14870 -93.02243 36185 ft 430 kts 276°
2026-04-20 21:59 40.15097 -93.10064 36165 ft 430 kts 276°
2026-04-20 21:59 40.15320 -93.17821 36178 ft 429 kts 276°
2026-04-20 22:00 40.15539 -93.25627 36163 ft 429 kts 276°
2026-04-20 22:00 40.15753 -93.33434 36170 ft 429 kts 275°
2026-04-20 22:01 40.15961 -93.41233 36150 ft 429 kts 275°
2026-04-20 22:01 40.16166 -93.49041 36154 ft 429 kts 275°
2026-04-20 22:02 40.16364 -93.56845 36145 ft 429 kts 275°
2026-04-20 22:02 40.16557 -93.64647 36149 ft 429 kts 275°
2026-04-20 22:03 40.16745 -93.72391 36147 ft 429 kts 275°
2026-04-20 22:03 40.16928 -93.80196 36146 ft 429 kts 275°
2026-04-20 22:04 40.17107 -93.87997 36123 ft 429 kts 275°
2026-04-20 22:04 40.17280 -93.95791 36135 ft 429 kts 275°
2026-04-20 22:05 40.17446 -94.03584 36124 ft 429 kts 275°
2026-04-20 22:05 40.17607 -94.11343 36125 ft 429 kts 275°
2026-04-20 22:06 40.17763 -94.19139 36106 ft 429 kts 275°
2026-04-20 22:06 40.17915 -94.26930 36116 ft 429 kts 274°
2026-04-20 22:07 40.18062 -94.34740 36104 ft 429 kts 274°
2026-04-20 22:07 40.18203 -94.42537 36101 ft 429 kts 274°
2026-04-20 22:08 40.18338 -94.50328 36098 ft 429 kts 274°
2026-04-20 22:08 40.18468 -94.58124 36074 ft 429 kts 274°
2026-04-20 22:09 40.18594 -94.65875 36098 ft 428 kts 274°
2026-04-20 22:09 40.18714 -94.73665 36070 ft 429 kts 274°
2026-04-20 22:10 40.18829 -94.81472 36066 ft 429 kts 274°
2026-04-20 22:10 40.18938 -94.89274 36062 ft 429 kts 274°
2026-04-20 22:11 40.19043 -94.97090 36054 ft 430 kts 274°
2026-04-20 22:11 40.19143 -95.04912 36060 ft 430 kts 274°
2026-04-20 22:12 40.19237 -95.12732 36064 ft 430 kts 274°
2026-04-20 22:12 40.19325 -95.20504 36061 ft 430 kts 274°
2026-04-20 22:13 40.19409 -95.28330 36061 ft 430 kts 274°
2026-04-20 22:13 40.19487 -95.36165 36041 ft 430 kts 273°
2026-04-20 22:14 40.19561 -95.44000 36057 ft 431 kts 273°
2026-04-20 22:14 40.19629 -95.51855 36061 ft 432 kts 273°
2026-04-20 22:15 40.19692 -95.59725 36054 ft 433 kts 273°
2026-04-20 22:15 40.19749 -95.67561 36044 ft 433 kts 273°
2026-04-20 22:16 40.19802 -95.75450 36035 ft 434 kts 273°
2026-04-20 22:16 40.19850 -95.83350 36043 ft 434 kts 273°
2026-04-20 22:17 40.19891 -95.91254 36036 ft 435 kts 272°
2026-04-20 22:17 40.19928 -95.99162 36043 ft 435 kts 272°
2026-04-20 22:18 40.19959 -96.07071 36032 ft 435 kts 272°
2026-04-20 22:18 40.19986 -96.14985 36031 ft 435 kts 272°
2026-04-20 22:19 40.20016 -96.22841 36022 ft 435 kts 273°
2026-04-20 22:19 40.20149 -96.30753 36020 ft 435 kts 274°
2026-04-20 22:20 40.20322 -96.38673 36032 ft 435 kts 274°
2026-04-20 22:20 40.20482 -96.46591 36014 ft 435 kts 273°
2026-04-20 22:21 40.20625 -96.54530 36011 ft 436 kts 273°
2026-04-20 22:21 40.20755 -96.62412 36012 ft 436 kts 273°
2026-04-20 22:22 40.20879 -96.70360 36007 ft 437 kts 273°
2026-04-20 22:22 40.20998 -96.78307 36009 ft 436 kts 273°
2026-04-20 22:23 40.21113 -96.86257 35997 ft 437 kts 272°
2026-04-20 22:23 40.21224 -96.94157 36008 ft 437 kts 272°
2026-04-20 22:24 40.21328 -97.02109 36010 ft 437 kts 272°
2026-04-20 22:24 40.21426 -97.10067 36006 ft 437 kts 272°
2026-04-20 22:25 40.21519 -97.18024 35994 ft 438 kts 272°
2026-04-20 22:25 40.21607 -97.25990 35998 ft 438 kts 272°
2026-04-20 22:26 40.21690 -97.33915 35991 ft 438 kts 272°
2026-04-20 22:26 40.21767 -97.41886 35993 ft 437 kts 272°
2026-04-20 22:27 40.21872 -97.53829 36007 ft 437 kts 272°
2026-04-20 22:27 40.21936 -97.61781 35996 ft 437 kts 272°
2026-04-20 22:28 40.21996 -97.69760 36022 ft 438 kts 271°
2026-04-20 22:28 40.22048 -97.77735 36004 ft 438 kts 271°
2026-04-20 22:29 40.22087 -97.84375 35995 ft 438 kts 271°
2026-04-20 22:29 40.22136 -97.93649 35991 ft 438 kts 271°
2026-04-20 22:30 40.22167 -98.00288 35972 ft 438 kts 271°
2026-04-20 22:30 40.22200 -98.08269 35977 ft 438 kts 271°
2026-04-20 22:31 40.22226 -98.16266 35978 ft 439 kts 271°
2026-04-20 22:31 40.22246 -98.24262 35965 ft 439 kts 271°
2026-04-20 22:32 40.22261 -98.32258 35965 ft 440 kts 271°
2026-04-20 22:32 40.22271 -98.40261 35964 ft 440 kts 271°
2026-04-20 22:33 40.22276 -98.48224 35965 ft 440 kts 271°
2026-04-20 22:33 40.22274 -98.56249 35963 ft 440 kts 271°
2026-04-20 22:34 40.22267 -98.64268 35964 ft 441 kts 270°
2026-04-20 22:34 40.22255 -98.72289 35956 ft 441 kts 270°
2026-04-20 22:35 40.22238 -98.80312 35955 ft 441 kts 270°
2026-04-20 22:35 40.22215 -98.88336 35948 ft 441 kts 270°
2026-04-20 22:36 40.22186 -98.96320 35947 ft 441 kts 270°
2026-04-20 22:36 40.22151 -99.04358 35952 ft 441 kts 270°
2026-04-20 22:37 40.22111 -99.12403 35942 ft 442 kts 270°
2026-04-20 22:37 40.22066 -99.20437 35950 ft 442 kts 270°
2026-04-20 22:38 40.22015 -99.28488 35938 ft 442 kts 270°
2026-04-20 22:38 40.21958 -99.36497 35944 ft 443 kts 270°
2026-04-20 22:39 40.21895 -99.44552 35934 ft 443 kts 270°
2026-04-20 22:39 40.21828 -99.52621 35935 ft 443 kts 269°
2026-04-20 22:40 40.21755 -99.60639 35926 ft 443 kts 269°
2026-04-20 22:40 40.21675 -99.68704 35920 ft 443 kts 269°
2026-04-20 22:41 40.21590 -99.76773 35926 ft 443 kts 269°
2026-04-20 22:41 40.21500 -99.84835 35922 ft 443 kts 269°
2026-04-20 22:42 40.21404 -99.92901 35929 ft 443 kts 269°
2026-04-20 22:42 40.21302 -100.00968 35930 ft 443 kts 269°
2026-04-20 22:43 40.21195 -100.09040 35933 ft 444 kts 269°
2026-04-20 22:43 40.21082 -100.17108 35934 ft 443 kts 269°
2026-04-20 22:44 40.20964 -100.25176 35931 ft 444 kts 269°
2026-04-20 22:44 40.20841 -100.33195 35939 ft 444 kts 269°
2026-04-20 22:45 40.20710 -100.41324 35948 ft 444 kts 269°
2026-04-20 22:45 40.20575 -100.49369 35953 ft 445 kts 269°
2026-04-20 22:46 40.20435 -100.57477 35947 ft 445 kts 269°
2026-04-20 22:46 40.20205 -100.65561 35952 ft 444 kts 267°
2026-04-20 22:47 40.19818 -100.73590 35950 ft 445 kts 266°
2026-04-20 22:47 40.19408 -100.81672 35943 ft 446 kts 266°
2026-04-20 22:48 40.19014 -100.89787 35932 ft 446 kts 266°
2026-04-20 22:48 40.18630 -100.97887 35921 ft 446 kts 266°
2026-04-20 22:49 40.18243 -101.06005 35907 ft 446 kts 266°
2026-04-20 22:49 40.17854 -101.14051 35906 ft 446 kts 266°
2026-04-20 22:50 40.17455 -101.22161 35908 ft 446 kts 266°
2026-04-20 22:50 40.17051 -101.30248 35912 ft 446 kts 266°
2026-04-20 22:51 40.16641 -101.38341 35906 ft 446 kts 266°
2026-04-20 22:51 40.16225 -101.46437 35911 ft 446 kts 266°
2026-04-20 22:52 40.15806 -101.54490 35908 ft 447 kts 266°
2026-04-20 22:52 40.15378 -101.62600 35908 ft 447 kts 266°
2026-04-20 22:53 40.14944 -101.70706 35902 ft 447 kts 266°
2026-04-20 22:53 40.14504 -101.78829 35913 ft 448 kts 266°
2026-04-20 22:54 40.14058 -101.86953 35909 ft 448 kts 266°
2026-04-20 22:54 40.13606 -101.95086 35909 ft 449 kts 266°
2026-04-20 22:55 40.13148 -102.03230 35910 ft 449 kts 266°
2026-04-20 22:55 40.12687 -102.11321 35910 ft 449 kts 266°
2026-04-20 22:56 40.12217 -102.19457 35912 ft 449 kts 266°
2026-04-20 22:56 40.11742 -102.27596 35912 ft 449 kts 266°
2026-04-20 22:57 40.11260 -102.35733 35917 ft 449 kts 266°
2026-04-20 22:57 40.10774 -102.43864 35910 ft 449 kts 265°
2026-04-20 22:58 40.10281 -102.52011 35922 ft 449 kts 265°
2026-04-20 22:58 40.09782 -102.60152 35925 ft 449 kts 265°
2026-04-20 22:59 40.09277 -102.68305 35926 ft 450 kts 265°
2026-04-20 22:59 40.08767 -102.76445 35925 ft 450 kts 265°
2026-04-20 23:00 40.08250 -102.84584 35928 ft 450 kts 265°
2026-04-20 23:00 40.07732 -102.92679 35937 ft 450 kts 265°
2026-04-20 23:01 40.07203 -103.00829 35934 ft 450 kts 265°
2026-04-20 23:01 40.06670 -103.08981 35934 ft 450 kts 265°
2026-04-20 23:02 40.06130 -103.17125 35937 ft 450 kts 265°
2026-04-20 23:02 40.05584 -103.25279 35936 ft 450 kts 265°
2026-04-20 23:03 40.05033 -103.33435 35936 ft 450 kts 265°
2026-04-20 23:03 40.04477 -103.41571 35933 ft 450 kts 265°
2026-04-20 23:04 40.03914 -103.49713 35920 ft 450 kts 265°
2026-04-20 23:04 40.03346 -103.57863 35925 ft 450 kts 265°
2026-04-20 23:05 40.02776 -103.65945 35926 ft 450 kts 265°
2026-04-20 23:05 40.02196 -103.74092 35926 ft 450 kts 265°
2026-04-20 23:06 40.01611 -103.82229 35922 ft 450 kts 265°
2026-04-20 23:06 40.01020 -103.90364 35916 ft 451 kts 265°
2026-04-20 23:07 40.00423 -103.98504 35927 ft 451 kts 265°
2026-04-20 23:07 39.99820 -104.06647 35923 ft 451 kts 264°
2026-04-20 23:08 39.99211 -104.14802 35921 ft 452 kts 264°
2026-04-20 23:08 39.98595 -104.22969 35951 ft 452 kts 264°
2026-04-20 23:09 39.97972 -104.31133 35983 ft 452 kts 264°
2026-04-20 23:09 39.97348 -104.39252 36009 ft 453 kts 264°
2026-04-20 23:10 39.96714 -104.47424 36020 ft 453 kts 264°
2026-04-20 23:10 39.96074 -104.55596 36049 ft 453 kts 264°
2026-04-20 23:11 39.95428 -104.63769 36069 ft 453 kts 264°
2026-04-20 23:11 39.94775 -104.71954 36072 ft 453 kts 264°
2026-04-20 23:12 39.94117 -104.80131 36051 ft 453 kts 264°
2026-04-20 23:12 39.93457 -104.88250 36020 ft 453 kts 264°
2026-04-20 23:13 39.92787 -104.96431 35985 ft 453 kts 264°
2026-04-20 23:13 39.92450 -105.00512 36090 ft 453 kts 264°
2026-04-20 23:13 39.92113 -105.04587 36097 ft 453 kts 264°
2026-04-20 23:14 39.91432 -105.12763 36092 ft 454 kts 264°
2026-04-20 23:14 39.90748 -105.20903 36094 ft 454 kts 264°
2026-04-20 23:15 39.90054 -105.29094 36059 ft 455 kts 264°
2026-04-20 23:15 39.89350 -105.37295 36025 ft 456 kts 265°
2026-04-20 23:16 39.88761 -105.44128 36022 ft 457 kts 265°
2026-04-20 23:16 39.88045 -105.52385 36025 ft 459 kts 265°
2026-04-20 23:17 39.87206 -105.61983 36017 ft 459 kts 264°
2026-04-20 23:17 39.86594 -105.68901 36053 ft 460 kts 265°
2026-04-20 23:18 39.85858 -105.77167 36039 ft 459 kts 265°
2026-04-20 23:18 39.85117 -105.85415 36055 ft 458 kts 265°
2026-04-20 23:19 39.84377 -105.93606 36066 ft 458 kts 265°
2026-04-20 23:19 39.83627 -106.01833 36060 ft 458 kts 265°
2026-04-20 23:20 39.82866 -106.10088 36060 ft 459 kts 265°
2026-04-20 23:20 39.82101 -106.18356 36060 ft 460 kts 265°
2026-04-20 23:21 39.81330 -106.26639 36066 ft 462 kts 265°
2026-04-20 23:21 39.80553 -106.34890 36047 ft 463 kts 265°
2026-04-20 23:22 39.79762 -106.43225 36052 ft 465 kts 265°
2026-04-20 23:22 39.78966 -106.51577 36057 ft 466 kts 265°
2026-04-20 23:23 39.78120 -106.59927 36063 ft 467 kts 265°
2026-04-20 23:23 39.77196 -106.68308 36049 ft 468 kts 264°
2026-04-20 23:24 39.76261 -106.76679 36035 ft 468 kts 265°
2026-04-20 23:24 39.75336 -106.85011 36052 ft 469 kts 265°
2026-04-20 23:25 39.74872 -106.89207 36188 ft 469 kts 265°
2026-04-20 23:25 39.74408 -106.93412 36177 ft 470 kts 265°
2026-04-20 23:25 39.73471 -107.01838 36164 ft 471 kts 265°
2026-04-20 23:26 39.72531 -107.10210 36144 ft 472 kts 265°
2026-04-20 23:26 39.71576 -107.18654 36117 ft 472 kts 265°
2026-04-20 23:27 39.70615 -107.27096 36091 ft 472 kts 265°
2026-04-20 23:27 39.69647 -107.35544 36044 ft 473 kts 265°
2026-04-20 23:28 39.68675 -107.43975 36053 ft 471 kts 265°
2026-04-20 23:28 39.67697 -107.52387 36070 ft 471 kts 265°
2026-04-20 23:29 39.66714 -107.60806 36094 ft 471 kts 265°
2026-04-20 23:29 39.65726 -107.69220 36085 ft 470 kts 265°
2026-04-20 23:30 39.64741 -107.77542 36106 ft 469 kts 264°
2026-04-20 23:30 39.64244 -107.81726 36000 ft 470 kts 264°
2026-04-20 23:30 39.63744 -107.85913 36000 ft 470 kts 265°
2026-04-20 23:31 39.62740 -107.94305 36003 ft 471 kts 264°
2026-04-20 23:31 39.61728 -108.02696 35999 ft 471 kts 264°
2026-04-20 23:32 39.60709 -108.11098 35997 ft 472 kts 264°
2026-04-20 23:32 39.59681 -108.19526 35985 ft 472 kts 264°
2026-04-20 23:33 39.58646 -108.27953 35978 ft 473 kts 264°
2026-04-20 23:33 39.57606 -108.36366 35983 ft 473 kts 264°
2026-04-20 23:34 39.56568 -108.44721 35979 ft 472 kts 264°
2026-04-20 23:34 39.55517 -108.53132 35979 ft 472 kts 264°
2026-04-20 23:35 39.53934 -108.65701 35974 ft 471 kts 264°
2026-04-20 23:36 39.52872 -108.74084 35971 ft 471 kts 264°
2026-04-20 23:36 39.51803 -108.82453 35970 ft 471 kts 264°
2026-04-20 23:37 39.50729 -108.90829 35971 ft 471 kts 264°
2026-04-20 23:37 39.49648 -108.99205 35968 ft 472 kts 264°
2026-04-20 23:38 39.48561 -109.07581 35969 ft 472 kts 263°
2026-04-20 23:38 39.47475 -109.15895 35983 ft 471 kts 263°
2026-04-20 23:39 39.46377 -109.24262 35973 ft 471 kts 263°
2026-04-20 23:39 39.45271 -109.32623 35988 ft 471 kts 263°
2026-04-20 23:40 39.44160 -109.40992 36005 ft 472 kts 263°
2026-04-20 23:40 39.43042 -109.49366 35992 ft 472 kts 263°
2026-04-20 23:41 39.41917 -109.57740 36008 ft 472 kts 263°
2026-04-20 23:41 39.40794 -109.66052 36009 ft 472 kts 263°
2026-04-20 23:42 39.39655 -109.74426 36017 ft 472 kts 263°
2026-04-20 23:42 39.38513 -109.82788 36019 ft 472 kts 263°
2026-04-20 23:43 39.37367 -109.91143 36026 ft 472 kts 263°
2026-04-20 23:43 39.36217 -109.99491 36007 ft 471 kts 263°
2026-04-20 23:44 39.35104 -110.07788 35985 ft 470 kts 263°
2026-04-20 23:44 39.33995 -110.16103 35999 ft 469 kts 263°
2026-04-20 23:45 39.32880 -110.24401 35990 ft 469 kts 262°
2026-04-20 23:45 39.31753 -110.32696 35995 ft 469 kts 262°
2026-04-20 23:46 39.30620 -110.40977 35977 ft 468 kts 262°
2026-04-20 23:46 39.29482 -110.49258 35974 ft 468 kts 262°
2026-04-20 23:47 39.28347 -110.57476 35978 ft 467 kts 262°
2026-04-20 23:47 39.27198 -110.65747 35975 ft 468 kts 262°
2026-04-20 23:48 39.26044 -110.74013 35974 ft 468 kts 262°
2026-04-20 23:48 39.24884 -110.82281 35970 ft 468 kts 262°
2026-04-20 23:49 39.23726 -110.90494 35988 ft 468 kts 261°
2026-04-20 23:49 39.22553 -110.98761 35992 ft 469 kts 261°
2026-04-20 23:50 39.21372 -111.07040 36006 ft 469 kts 261°
2026-04-20 23:50 39.20185 -111.15321 36005 ft 469 kts 261°
2026-04-20 23:51 39.18994 -111.23588 36019 ft 469 kts 261°
2026-04-20 23:51 39.17798 -111.31844 36024 ft 469 kts 261°
2026-04-20 23:52 39.16597 -111.40098 36025 ft 469 kts 261°
2026-04-20 23:52 39.15398 -111.48302 36016 ft 469 kts 261°
2026-04-20 23:53 39.14185 -111.56550 35984 ft 469 kts 261°
2026-04-20 23:53 39.12966 -111.64796 35998 ft 468 kts 261°
2026-04-20 23:54 39.11742 -111.73037 35998 ft 468 kts 261°
2026-04-20 23:54 39.10511 -111.81290 35967 ft 469 kts 261°
2026-04-20 23:55 39.09273 -111.89535 35969 ft 469 kts 261°
2026-04-20 23:55 39.08030 -111.97782 35971 ft 470 kts 261°
2026-04-20 23:56 39.06786 -112.05992 35990 ft 471 kts 260°
2026-04-20 23:56 39.05526 -112.14264 35999 ft 471 kts 260°
2026-04-20 23:57 39.04260 -112.22531 36025 ft 470 kts 261°
2026-04-20 23:57 39.02991 -112.30788 36033 ft 470 kts 260°
2026-04-20 23:58 39.01718 -112.39026 36032 ft 468 kts 260°
2026-04-20 23:58 39.00441 -112.47223 36035 ft 467 kts 260°
2026-04-20 23:58 38.99808 -112.51271 35897 ft 467 kts 260°
2026-04-20 23:59 38.99166 -112.55363 35903 ft 467 kts 260°
2026-04-20 23:59 38.97881 -112.63538 35886 ft 467 kts 259°
2026-04-21 00:00 38.96590 -112.71712 35881 ft 467 kts 259°
2026-04-21 00:00 38.95293 -112.79889 35887 ft 466 kts 259°
2026-04-21 00:01 38.93992 -112.88049 35886 ft 466 kts 259°
2026-04-21 00:01 38.92686 -112.96199 35878 ft 465 kts 259°
2026-04-21 00:02 38.91383 -113.04292 35883 ft 465 kts 259°
2026-04-21 00:02 38.90069 -113.12422 35889 ft 465 kts 258°
2026-04-21 00:03 38.88750 -113.20548 35894 ft 464 kts 258°
2026-04-21 00:03 38.87428 -113.28648 35903 ft 463 kts 258°
2026-04-21 00:04 38.86103 -113.36730 35899 ft 463 kts 258°
2026-04-21 00:04 38.84997 -113.43447 35900 ft 462 kts 258°
2026-04-21 00:05 38.83443 -113.52847 35904 ft 463 kts 257°
2026-04-21 00:05 38.82100 -113.60926 35910 ft 463 kts 257°
2026-04-21 00:06 38.80979 -113.67647 35896 ft 464 kts 257°
2026-04-21 00:06 38.79624 -113.75743 35902 ft 464 kts 257°
2026-04-21 00:07 38.78262 -113.83838 35909 ft 464 kts 257°
2026-04-21 00:07 38.76892 -113.91944 35911 ft 464 kts 257°
2026-04-21 00:08 38.75522 -114.00035 35899 ft 464 kts 257°
2026-04-21 00:08 38.74157 -114.08071 35917 ft 464 kts 256°
2026-04-21 00:09 38.72784 -114.16119 35913 ft 462 kts 256°
2026-04-21 00:09 38.71404 -114.24160 35918 ft 461 kts 256°
2026-04-21 00:10 38.70024 -114.32171 35924 ft 460 kts 255°
2026-04-21 00:10 38.68640 -114.40170 35929 ft 460 kts 255°
2026-04-21 00:11 38.67254 -114.48152 35919 ft 459 kts 255°
2026-04-21 00:11 38.65870 -114.56085 35913 ft 459 kts 255°
2026-04-21 00:12 38.64472 -114.64063 35912 ft 459 kts 255°
2026-04-21 00:12 38.63068 -114.72040 35906 ft 460 kts 255°
2026-04-21 00:13 38.61659 -114.80017 35882 ft 460 kts 255°
2026-04-21 00:13 38.60243 -114.88001 35905 ft 460 kts 255°
2026-04-21 00:14 38.58832 -114.95921 35892 ft 459 kts 255°
2026-04-21 00:14 38.57409 -115.03879 35890 ft 459 kts 254°
2026-04-21 00:15 38.55981 -115.11821 35882 ft 458 kts 254°
2026-04-21 00:15 38.54542 -115.19753 35866 ft 458 kts 254°
2026-04-21 00:16 38.53098 -115.27669 35868 ft 457 kts 254°
2026-04-21 00:16 38.51648 -115.35588 35879 ft 458 kts 254°
2026-04-21 00:17 38.50190 -115.43532 35870 ft 459 kts 253°
2026-04-21 00:17 38.48735 -115.51428 35864 ft 460 kts 254°
2026-04-21 00:18 38.47263 -115.59386 35866 ft 461 kts 254°
2026-04-21 00:18 38.45784 -115.67345 35874 ft 461 kts 253°
2026-04-21 00:19 38.44295 -115.75319 35879 ft 462 kts 253°
2026-04-21 00:19 38.42798 -115.83316 35889 ft 463 kts 253°
2026-04-21 00:20 38.41294 -115.91314 35893 ft 464 kts 253°
2026-04-21 00:20 38.39792 -115.99270 35894 ft 464 kts 253°
2026-04-21 00:21 38.38274 -116.07279 35914 ft 464 kts 253°
2026-04-21 00:21 38.36754 -116.15260 35905 ft 463 kts 252°
2026-04-21 00:22 38.35219 -116.23291 36300 ft 467 kts 253°
2026-04-21 00:22 38.34452 -116.27302 36728 ft 465 kts 252°
2026-04-21 00:22 38.33687 -116.31292 37160 ft 463 kts 252°
2026-04-21 00:22 38.32911 -116.35254 37531 ft 460 kts 251°
2026-04-21 00:23 38.32063 -116.39180 37834 ft 460 kts 250°
2026-04-21 00:23 38.30262 -116.47007 37928 ft 464 kts 250°
2026-04-21 00:24 38.28456 -116.54854 37934 ft 459 kts 250°
2026-04-21 00:24 38.26693 -116.62633 37950 ft 456 kts 249°
2026-04-21 00:25 38.24945 -116.70361 37944 ft 453 kts 249°
2026-04-21 00:25 38.23196 -116.78055 37958 ft 452 kts 249°
2026-04-21 00:26 38.21447 -116.85715 37984 ft 451 kts 249°
2026-04-21 00:26 38.19710 -116.93301 38003 ft 451 kts 249°
2026-04-21 00:27 38.17967 -117.00883 38011 ft 451 kts 249°
2026-04-21 00:27 38.16201 -117.08542 38025 ft 451 kts 249°
2026-04-21 00:28 38.14431 -117.16194 38024 ft 451 kts 249°
2026-04-21 00:28 38.12660 -117.23833 37878 ft 452 kts 248°
2026-04-21 00:29 38.10886 -117.31475 37906 ft 451 kts 248°
2026-04-21 00:29 38.09136 -117.39060 37892 ft 450 kts 248°
2026-04-21 00:30 38.07375 -117.46676 37893 ft 449 kts 248°
2026-04-21 00:30 38.05609 -117.54286 37879 ft 450 kts 248°
2026-04-21 00:31 38.03811 -117.61990 37867 ft 460 kts 248°
2026-04-21 00:31 38.01978 -117.69839 37885 ft 467 kts 248°
2026-04-21 00:32 38.00195 -117.77785 37853 ft 471 kts 251°
2026-04-21 00:32 37.99067 -117.85902 37849 ft 471 kts 257°
2026-04-21 00:33 37.98367 -117.94149 37856 ft 470 kts 258°
2026-04-21 00:33 37.97642 -118.02397 37852 ft 469 kts 257°
2026-04-21 00:34 37.96806 -118.10600 37855 ft 469 kts 256°
2026-04-21 00:34 37.95920 -118.18801 37848 ft 470 kts 256°
2026-04-21 00:35 37.95033 -118.26959 37840 ft 470 kts 256°
2026-04-21 00:35 37.94145 -118.35170 37847 ft 470 kts 256°
2026-04-21 00:36 37.93252 -118.43400 37847 ft 472 kts 256°
2026-04-21 00:36 37.92350 -118.51650 37852 ft 473 kts 256°
2026-04-21 00:37 37.91441 -118.59924 37856 ft 474 kts 256°
2026-04-21 00:37 37.90533 -118.68136 37928 ft 474 kts 256°
2026-04-21 00:38 37.89609 -118.76419 37916 ft 475 kts 256°
2026-04-21 00:38 37.88675 -118.84684 37960 ft 474 kts 256°
2026-04-21 00:39 37.87731 -118.92950 37966 ft 474 kts 256°
2026-04-21 00:39 37.86782 -119.01208 37966 ft 474 kts 256°
2026-04-21 00:40 37.85830 -119.09460 37926 ft 474 kts 256°
2026-04-21 00:40 37.84873 -119.17709 37965 ft 473 kts 256°
2026-04-21 00:41 37.83920 -119.25871 37983 ft 471 kts 256°
2026-04-21 00:41 37.82952 -119.34085 37971 ft 473 kts 256°
2026-04-21 00:42 37.81977 -119.42321 37992 ft 474 kts 256°
2026-04-21 00:42 37.80996 -119.50579 37992 ft 475 kts 256°
2026-04-21 00:43 37.80006 -119.58855 37966 ft 476 kts 256°
2026-04-21 00:43 37.79019 -119.67059 37984 ft 474 kts 256°
2026-04-21 00:44 37.78023 -119.75290 37975 ft 473 kts 256°
2026-04-21 00:44 37.77021 -119.83508 37990 ft 471 kts 256°
2026-04-21 00:45 37.76031 -119.91617 37953 ft 456 kts 255°
2026-04-21 00:45 37.75547 -119.95568 37930 ft 452 kts 255°
2026-04-21 00:45 37.75067 -119.99462 37680 ft 444 kts 255°
2026-04-21 00:45 37.74597 -120.03255 37043 ft 442 kts 255°
2026-04-21 00:46 37.74112 -120.07124 36047 ft 448 kts 255°
2026-04-21 00:46 37.73618 -120.11038 35108 ft 454 kts 255°
2026-04-21 00:46 37.73122 -120.14994 34393 ft 453 kts 255°
2026-04-21 00:46 37.72631 -120.18923 33582 ft 453 kts 255°
2026-04-21 00:47 37.72137 -120.22866 32580 ft 455 kts 255°
2026-04-21 00:47 37.71640 -120.26827 31743 ft 455 kts 255°
2026-04-21 00:47 37.71153 -120.30704 31146 ft 449 kts 255°
2026-04-21 00:47 37.70666 -120.34572 30683 ft 442 kts 255°
2026-04-21 00:48 37.70185 -120.38371 30196 ft 435 kts 255°
2026-04-21 00:48 37.69714 -120.42107 29841 ft 426 kts 255°
2026-04-21 00:48 37.69279 -120.45765 29440 ft 417 kts 256°
2026-04-21 00:48 37.68866 -120.49369 28942 ft 412 kts 256°
2026-04-21 00:49 37.68460 -120.52932 28330 ft 409 kts 255°
2026-04-21 00:49 37.68051 -120.56481 27724 ft 407 kts 255°
2026-04-21 00:49 37.67642 -120.59995 27164 ft 403 kts 255°
2026-04-21 00:49 37.67233 -120.63485 26645 ft 399 kts 255°
2026-04-21 00:50 37.66825 -120.66937 26132 ft 396 kts 255°
2026-04-21 00:50 37.66421 -120.70356 25635 ft 392 kts 255°
2026-04-21 00:50 37.66027 -120.73691 25275 ft 386 kts 254°
2026-04-21 00:50 37.65634 -120.77006 25005 ft 377 kts 254°
2026-04-21 00:51 37.65246 -120.80249 24673 ft 371 kts 254°
2026-04-21 00:51 37.64860 -120.83450 24257 ft 368 kts 253°
2026-04-21 00:51 37.64472 -120.86638 23787 ft 367 kts 253°
2026-04-21 00:51 37.64086 -120.89817 23312 ft 366 kts 253°
2026-04-21 00:52 37.63702 -120.92989 22805 ft 363 kts 253°
2026-04-21 00:52 37.63322 -120.96123 22329 ft 360 kts 253°
2026-04-21 00:52 37.62924 -120.99237 21842 ft 358 kts 253°
2026-04-21 00:52 37.62511 -121.02327 21361 ft 356 kts 253°
2026-04-21 00:53 37.62096 -121.05394 20896 ft 354 kts 253°
2026-04-21 00:53 37.61823 -121.07414 20608 ft 352 kts 253°
2026-04-21 00:53 37.61413 -121.10448 20169 ft 350 kts 253°
2026-04-21 00:53 37.61006 -121.13468 19740 ft 349 kts 252°
2026-04-21 00:54 37.60471 -121.17444 19210 ft 345 kts 252°
2026-04-21 00:54 37.60071 -121.20424 18812 ft 343 kts 252°
2026-04-21 00:54 37.59802 -121.22422 18549 ft 342 kts 252°
2026-04-21 00:54 37.59403 -121.25372 18137 ft 341 kts 253°
2026-04-21 00:55 37.59017 -121.28318 17623 ft 341 kts 254°
2026-04-21 00:55 37.58671 -121.31242 17147 ft 341 kts 254°
2026-04-21 00:55 37.58337 -121.34199 16687 ft 340 kts 255°
2026-04-21 00:55 37.58008 -121.37149 16211 ft 339 kts 255°
2026-04-21 00:56 37.57677 -121.40091 15730 ft 339 kts 255°
2026-04-21 00:56 37.57343 -121.43037 15285 ft 339 kts 254°
2026-04-21 00:56 37.57005 -121.45976 14860 ft 338 kts 255°
2026-04-21 00:56 37.56666 -121.48904 14343 ft 333 kts 255°
2026-04-21 00:57 37.56339 -121.51740 13765 ft 321 kts 255°
2026-04-21 00:57 37.56021 -121.54485 13183 ft 312 kts 254°
2026-04-21 00:57 37.55707 -121.57163 12547 ft 306 kts 254°
2026-04-21 00:57 37.55402 -121.59783 11956 ft 298 kts 254°
2026-04-21 00:58 37.55106 -121.62296 11504 ft 288 kts 253°
2026-04-21 00:58 37.54683 -121.64690 11101 ft 274 kts 246°
2026-04-21 00:58 37.54113 -121.66961 10507 ft 270 kts 245°
2026-04-21 00:58 37.53527 -121.69191 9904 ft 266 kts 245°
2026-04-21 00:59 37.52969 -121.71392 9277 ft 261 kts 245°
2026-04-21 00:59 37.52436 -121.73565 8756 ft 258 kts 246°
2026-04-21 00:59 37.51925 -121.75694 8416 ft 247 kts 246°
2026-04-21 00:59 37.51452 -121.77687 8268 ft 228 kts 246°
2026-04-21 01:00 37.51001 -121.79571 8133 ft 229 kts 245°
2026-04-21 01:00 37.50518 -121.81554 7885 ft 241 kts 245°
2026-04-21 01:00 37.50043 -121.83541 7562 ft 237 kts 245°
2026-04-21 01:00 37.49580 -121.85491 7284 ft 228 kts 246°
2026-04-21 01:01 37.49144 -121.87381 7000 ft 227 kts 250°
2026-04-21 01:01 37.49065 -121.89418 6783 ft 236 kts 266°
2026-04-21 01:01 37.49220 -121.91469 6522 ft 234 kts 268°
2026-04-21 01:01 37.49382 -121.93493 6255 ft 230 kts 267°
2026-04-21 01:02 37.49523 -121.95473 5994 ft 223 kts 266°
2026-04-21 01:02 37.49650 -121.97370 5801 ft 212 kts 265°
2026-04-21 01:02 37.49758 -121.99187 5534 ft 206 kts 265°
2026-04-21 01:02 37.49861 -122.00953 5268 ft 197 kts 265°
2026-04-21 01:03 37.49960 -122.02622 5053 ft 184 kts 265°
2026-04-21 01:03 37.50050 -122.04161 4846 ft 173 kts 264°
2026-04-21 01:03 37.50135 -122.05607 4671 ft 160 kts 264°
2026-04-21 01:03 37.50211 -122.07027 4513 ft 166 kts 264°
2026-04-21 01:04 37.50293 -122.08470 4315 ft 165 kts 266°
2026-04-21 01:04 37.50614 -122.09892 4141 ft 171 kts 283°
2026-04-21 01:04 37.51120 -122.11249 3925 ft 171 kts 286°
2026-04-21 01:04 37.51659 -122.12578 3721 ft 169 kts 287°
2026-04-21 01:05 37.52192 -122.13858 3505 ft 161 kts 287°
2026-04-21 01:05 37.52707 -122.15089 3362 ft 160 kts 286°
2026-04-21 01:05 37.53229 -122.16342 3188 ft 162 kts 287°
2026-04-21 01:05 37.53753 -122.17588 3089 ft 158 kts 287°
2026-04-21 01:06 37.54250 -122.18767 2999 ft 154 kts 287°
2026-04-21 01:06 37.54751 -122.19966 2815 ft 154 kts 287°
2026-04-21 01:06 37.55251 -122.21160 2629 ft 154 kts 288°
2026-04-21 01:06 37.55755 -122.22362 2421 ft 156 kts 288°
2026-04-21 01:07 37.56263 -122.23569 2204 ft 154 kts 288°
2026-04-21 01:07 37.56756 -122.24739 2001 ft 149 kts 288°
2026-04-21 01:07 37.57235 -122.25886 1785 ft 146 kts 289°
2026-04-21 01:07 37.57709 -122.27019 1599 ft 146 kts 289°
2026-04-21 01:08 37.58185 -122.28153 1399 ft 146 kts 290°
2026-04-21 01:08 37.58653 -122.29271 1202 ft 146 kts 290°
2026-04-21 01:08 37.59128 -122.30399 999 ft 145 kts 291°
2026-04-21 01:08 37.59595 -122.31515 793 ft 145 kts 291°
2026-04-21 01:09 37.60071 -122.32650 616 ft 147 kts 292°
2026-04-21 01:09 37.60541 -122.33776 402 ft 142 kts 294°
2026-04-21 01:09 37.60997 -122.34870 215 ft 143 kts 297°
2026-04-21 01:09 37.61471 -122.36011 55 ft 147 kts 299°
2026-04-21 01:10 37.61915 -122.37053 27 ft 117 kts 298°
2026-04-21 01:10 37.62228 -122.37792 26 ft 80 kts 297°
2026-04-21 01:10 37.62410 -122.38237 27 ft 35 kts 297°
2026-04-21 01:10 37.62507 -122.38510 27 ft 34 kts 280°
2026-04-21 01:11 37.62495 -122.38776 27 ft 23 kts 264°
2026-04-21 01:11 37.62429 -122.38896 27 ft 15 kts 205°
2026-04-21 01:11 37.62333 -122.38954 27 ft 15 kts 208°
2026-04-21 01:11 37.62261 -122.38908 27 ft 13 kts 117°
2026-04-21 01:12 37.62216 -122.38811 27 ft 12 kts 136°
2026-04-21 01:12 37.62143 -122.38825 27 ft 8 kts 205°
2026-04-21 01:12 37.62118 -122.38840 27 ft 3 kts 206°
2026-04-21 01:12 37.62111 -122.38844 27 ft 0 kts 206°